OE7SBH-WX Weather Reports


Display with metric or nautical units.
time (UTC)temp
F
wind
direction
speed
MPH
gust
MPH
rain 1hr
in
rain 24hr
in
rain mn
in
humidity
%
barometer
mb
20260904105632 80 22 1.0 3.0 0.00 0.00 0.00 47 1025.5
20260904104516 79 345 2.0 4.0 0.00 0.00 0.00 48 1025.7
20260904103532 79 9 1.0 2.0 0.00 0.00 0.00 48 1026.0
20260904102536 79 347 2.0 7.0 0.00 0.00 0.00 49 1026.1
20260904101532 77 31 1.0 3.0 0.00 0.00 0.00 51 1026.2
20260904100516 79 48 1.0 3.0 0.00 0.00 0.00 50 1026.5
20260904095532 76 321 1.0 2.0 0.00 0.00 0.00 53 1026.8
20260904094517 77 64 1.0 3.0 0.00 0.00 0.00 52 1026.8
20260904093533 75 31 1.0 3.0 0.00 0.00 0.00 54 1027.0
20260904092536 77 76 1.0 2.0 0.00 0.00 0.00 53 1027.2
20260904091532 75 23 0.0 2.0 0.00 0.00 0.00 55 1027.4
20260904090516 73 23 2.0 3.0 0.00 0.00 0.00 59 1027.5
20260904085533 72 28 1.0 3.0 0.00 0.00 0.00 60 1027.7
20260904084516 72 27 1.0 3.0 0.00 0.00 0.00 61 1027.8
20260904083533 71 51 2.0 3.0 0.00 0.00 0.00 62 1027.9
20260904082516 71 31 1.0 2.0 0.00 0.00 0.00 64 1028.0
20260904081552 70 7 2.0 4.0 0.00 0.00 0.00 67 1028.1
20260904080517 68 14 1.0 3.0 0.00 0.00 0.00 70 1028.1
20260904075532 68 24 1.0 3.0 0.00 0.00 0.00 71 1028.2
20260904074516 68 45 1.0 3.0 0.00 0.00 0.00 74 1028.3
20260904073532 67 45 1.0 2.0 0.00 0.00 0.00 75 1028.4
20260904072516 68 43 1.0 3.0 0.00 0.00 0.00 72 1028.5
20260904071532 67 323 0.0 1.0 0.00 0.00 0.00 73 1028.6
20260904070517 64 342 1.0 2.0 0.00 0.00 0.00 79 1028.7
20260904065532 63 36 1.0 3.0 0.00 0.00 0.00 82 1028.8
20260904064516 62 26 0.0 2.0 0.00 0.00 0.00 84 1028.9
20260904063533 61 26 1.0 3.0 0.00 0.00 0.00 87 1028.8
20260904062517 59 354 1.0 2.0 0.00 0.00 0.00 89 1028.9
20260904061533 59 4 1.0 3.0 0.00 0.00 0.00 89 1028.8
20260904060516 59 73 0.0 2.0 0.00 0.00 0.00 89 1028.9
20260904055532 59 0.0 0.0 0.00 0.00 0.00 89 1029.1
20260904054517 58 72 0.0 1.0 0.00 0.00 0.00 90 1029.1
20260904053533 58 72 0.0 1.0 0.00 0.00 0.00 90 1029.0
20260904052517 59 73 0.0 1.0 0.00 0.00 0.00 88 1029.0
20260904051532 59 61 1.0 2.0 0.00 0.00 0.00 88 1028.9
20260904050537 59 29 1.0 2.0 0.00 0.00 0.00 88 1029.0
20260904045532 59 25 0.0 1.0 0.00 0.00 0.00 87 1028.9
20260904044516 59 29 0.0 1.0 0.00 0.00 0.00 86 1028.8
20260904043532 59 42 0.0 1.0 0.00 0.00 0.00 88 1028.7
20260904042516 60 358 0.0 1.0 0.00 0.00 0.00 87 1028.8
20260904041532 60 324 1.0 1.0 0.00 0.00 0.00 89 1028.7
20260904040517 60 0.0 0.0 0.00 0.00 0.00 88 1028.8
20260904035533 61 0.0 0.0 0.00 0.00 0.00 84 1029.0
20260904034517 61 326 0.0 1.0 0.00 0.00 0.00 84 1028.8
20260904033633 61 327 1.0 1.0 0.00 0.00 0.00 84 1028.8
20260904032516 61 328 0.0 1.0 0.00 0.00 0.00 85 1028.7
20260904031532 62 329 0.0 1.0 0.00 0.00 0.00 84 1028.8
20260904030517 62 328 1.0 1.0 0.00 0.00 0.00 85 1028.7
20260904025533 63 0.0 0.0 0.00 0.00 0.00 83 1028.7
20260904024517 63 288 0.0 1.0 0.00 0.00 0.00 84 1028.8
20260904023532 63 343 0.0 2.0 0.00 0.00 0.00 82 1028.9
20260904022516 63 348 1.0 2.0 0.00 0.00 0.00 83 1029.1
20260904021612 63 353 0.0 1.0 0.00 0.00 0.00 83 1029.1
20260904020517 63 353 1.0 2.0 0.00 0.00 0.00 85 1029.1
20260904015532 63 0.0 0.0 0.00 0.00 0.00 85 1029.1
20260904014516 63 6 0.0 1.0 0.00 0.00 0.00 85 1029.2
20260904013552 63 15 0.0 2.0 0.00 0.00 0.00 85 1029.2
20260904012516 63 341 1.0 2.0 0.00 0.00 0.00 84 1029.2
20260904011532 63 326 2.0 2.0 0.00 0.00 0.00 83 1029.2
20260904010527 64 357 0.0 2.0 0.00 0.00 0.00 83 1029.2
20260904005517 64 333 1.0 2.0 0.00 0.00 0.00 80 1029.2
20260904004530 64 323 1.0 2.0 0.00 0.00 0.00 80 1029.1
20260904003553 65 317 0.0 1.0 0.00 0.00 0.00 80 1029.2
20260904002516 64 0.0 0.0 0.00 0.00 0.00 80 1029.2
20260904001552 64 317 0.0 1.0 0.00 0.00 0.00 81 1029.2
20260904000516 65 143 1.0 3.0 0.00 0.00 0.00 80 1029.2
20260903235532 64 184 1.0 2.0 0.00 0.00 0.00 81 1029.3
20260903234516 64 189 1.0 2.0 0.00 0.00 0.00 81 1029.4
20260903233552 65 172 2.0 3.0 0.00 0.00 0.00 80 1029.4
20260903232517 65 196 1.0 2.0 0.00 0.00 0.00 78 1029.6
20260903231533 65 195 1.0 2.0 0.00 0.00 0.00 78 1029.6
20260903230517 65 150 1.0 3.0 0.00 0.00 0.00 78 1029.7
20260903225533 65 176 1.0 2.0 0.00 0.00 0.00 78 1029.6
20260903224557 65 270 1.0 2.0 0.00 0.00 0.00 80 1029.7
20260903223532 64 0.0 0.0 0.00 0.00 0.00 81 1029.6
20260903222516 65 315 0.0 1.0 0.00 0.00 0.00 79 1029.5
20260903221532 66 0.0 0.0 0.00 0.00 0.00 78 1029.5
20260903220537 65 323 1.0 1.0 0.00 0.00 0.00 79 1029.3
20260903215533 65 0.0 0.0 0.00 0.00 0.00 79 1029.2
20260903214516 65 340 0.0 1.0 0.00 0.00 0.00 80 1029.2
20260903213533 65 339 1.0 2.0 0.00 0.00 0.00 79 1029.6
20260903212516 66 0.0 0.0 0.00 0.00 0.00 78 1029.7
20260903211516 66 348 0.0 2.0 0.00 0.00 0.00 77 1029.5
20260903210533 66 195 1.0 1.0 0.00 0.00 0.00 77 1029.3
20260903205533 66 196 1.0 2.0 0.00 0.00 0.00 77 1029.3
20260903204516 66 0.0 0.0 0.00 0.00 0.00 78 1029.1
20260903203532 66 179 1.0 2.0 0.00 0.00 0.00 77 1029.0
20260903202516 66 0.0 0.0 0.00 0.00 0.00 76 1029.1
20260903201532 67 178 2.0 2.0 0.00 0.00 0.00 75 1028.7
20260903200517 66 0.0 0.0 0.00 0.00 0.00 76 1028.9
20260903195533 66 0.0 0.0 0.00 0.00 0.00 76 1028.7
20260903194537 67 115 1.0 2.0 0.00 0.00 0.00 75 1028.6
20260903193533 67 181 0.0 1.0 0.00 0.00 0.00 76 1028.7
20260903192517 67 165 1.0 2.0 0.00 0.00 0.00 71 1028.6
20260903191532 68 126 0.0 1.0 0.00 0.00 0.00 73 1028.4
20260903190517 68 126 1.0 1.0 0.00 0.00 0.00 73 1028.4
20260903185553 69 125 0.0 1.0 0.00 0.00 0.00 73 1028.2
20260903184516 70 209 1.0 2.0 0.00 0.00 0.00 70 1028.1
20260903183552 70 253 0.0 2.0 0.00 0.00 0.00 69 1027.9
20260903182536 71 149 1.0 3.0 0.00 0.00 0.00 69 1027.9
20260903181532 72 284 1.0 2.0 0.00 0.00 0.00 65 1027.7
20260903180557 72 312 1.0 3.0 0.00 0.00 0.00 66 1027.8
20260903175533 72 252 0.0 1.0 0.00 0.00 0.00 64 1027.7
20260903174517 72 312 2.0 3.0 0.00 0.00 0.00 64 1027.6
20260903173552 73 307 2.0 3.0 0.00 0.00 0.00 64 1027.5
20260903172516 75 312 3.0 6.0 0.00 0.00 0.00 59 1027.4
20260903171532 73 327 4.0 6.0 0.00 0.00 0.00 62 1027.1
20260903170517 74 329 2.0 3.0 0.00 0.00 0.00 62 1027.1
20260903165532 75 336 2.0 4.0 0.00 0.00 0.00 61 1027.1
20260903164517 76 347 1.0 3.0 0.00 0.00 0.00 59 1026.9
20260903163533 76 334 3.0 4.0 0.00 0.00 0.00 58 1026.9
20260903162516 76 323 5.0 8.0 0.00 0.00 0.00 56 1026.8
20260903161532 77 329 5.0 8.0 0.00 0.00 0.00 55 1026.7
20260903160516 78 327 5.0 8.0 0.00 0.00 0.00 54 1026.7
20260903155532 78 321 6.0 11.0 0.00 0.00 0.00 53 1026.8
20260903154516 78 322 5.0 9.0 0.00 0.00 0.00 52 1027.0
20260903153532 78 314 6.0 9.0 0.00 0.00 0.00 52 1026.9
20260903152516 79 313 5.0 11.0 0.00 0.00 0.00 52 1026.9
20260903151517 79 330 9.0 14.0 0.00 0.00 0.00 52 1026.9
20260903150526 78 322 10.0 16.0 0.00 0.00 0.00 52 1026.9
20260903145521 79 327 11.0 17.0 0.00 0.00 0.00 52 1026.8
20260903144530 79 325 9.0 15.0 0.00 0.00 0.00 52 1026.9
20260903143532 78 321 9.0 14.0 0.00 0.00 0.00 52 1026.6
20260903142517 78 328 9.0 16.0 0.00 0.00 0.00 52 1026.6
20260903141517 79 318 9.0 14.0 0.00 0.00 0.00 52 1026.5
20260903140527 79 330 7.0 11.0 0.00 0.00 0.00 51 1026.5
20260903135517 79 333 6.0 11.0 0.00 0.00 0.00 50 1026.5
20260903134523 80 330 7.0 14.0 0.00 0.00 0.00 48 1026.3
20260903133529 80 326 6.0 10.0 0.00 0.00 0.00 47 1026.3
20260903132526 82 337 5.0 11.0 0.00 0.00 0.00 47 1026.7
20260903131521 81 331 6.0 10.0 0.00 0.00 0.00 46 1026.7
20260903130527 81 330 8.0 15.0 0.00 0.00 0.00 47 1026.8
20260903125517 82 338 4.0 9.0 0.00 0.00 0.00 47 1026.7
20260903124523 81 324 6.0 11.0 0.00 0.00 0.00 47 1026.8
20260903123533 81 332 7.0 11.0 0.00 0.00 0.00 45 1026.9
20260903122547 81 332 6.0 14.0 0.00 0.00 0.00 46 1026.9
20260903121520 80 326 6.0 15.0 0.00 0.00 0.00 47 1026.9
20260903120527 80 328 7.0 11.0 0.00 0.00 0.00 48 1027.1
20260903115537 80 327 4.0 10.0 0.00 0.00 0.00 49 1026.9
20260903114551 79 328 2.0 7.0 0.00 0.00 0.00 48 1027.1
20260903113553 79 326 4.0 7.0 0.00 0.00 0.00 49 1027.2
20260903112547 78 334 1.0 3.0 0.00 0.00 0.00 50 1027.3
20260903111521 78 336 2.0 7.0 0.00 0.00 0.00 52 1027.3
20260903110523 78 325 3.0 6.0 0.00 0.00 0.00 53 1027.6